Lid_Strength_Index
12 13 13 13 13 12 13 13 12 12 12 12 12 12 13 13 13 12 12 6 5 5 4 3 3 3 3 3 3 3 2 2 2 2 2 2 1 1 1 2 1 1 1
12 12 12 12 12 12 12 13 12 12 12 12 12 12 13 13 13 12 12 11 6 5 5 4 4 3 3 3 3 3 2 3 3 3 2 2 2 2 2 2 2 2 1
12 12 12 13 12 12 12 12 12 12 12 12 12 12 12 12 13 13 12 12 11 7 6 5 5 4 4 3 3 4 3 3 3 3 3 3 3 2 2 2 2 2 2
12 13 13 13 12 12 12 12 12 12 12 13 13 12 12 12 13 13 12 12 12 11 9 6 5 5 5 4 4 4 3 3 3 3 3 3 3 3 3 2 2 2 2
11 13 13 13 13 13 13 12 12 13 13 13 12 12 12 12 12 11 12 12 12 11 11 9 6 5 5 5 4 4 4 3 3 3 3 3 3 3 2 3 2 2 2
11 12 13 13 13 13 13 13 13 13 13 13 11 11 12 12 12 12 12 11 12 11 11 11 12 11 6 5 5 5 4 4 3 3 3 3 3 3 2 3 3 2 2
12 13 13 13 13 14 13 13 14 14 14 14 14 14 14 13 13 13 12 12 12 12 11 11 11 11 11 6 6 5 5 4 3 3 3 3 3 3 3 3 3 3 2
12 13 13 13 13 14 14 14 14 14 14 14 14 16 17 15 13 13 13 12 13 12 11 11 11 11 11 11 9 6 6 5 4 3 3 3 3 3 3 3 3 3 3
12 12 13 13 13 13 14 14 14 14 14 14 14 15 18 18 17 14 13 13 13 13 12 11 11 11 11 11 9 8 6 5 4 4 3 3 3 3 3 3 3 3 2
12 12 12 13 13 13 14 14 13 14 14 14 14 13 15 15 16 16 14 14 13 12 12 12 11 11 11 11 9 7 5 5 5 4 3 3 3 3 3 3 3 2 2
12 12 12 13 13 13 13 13 13 14 14 14 14 14 15 15 16 16 17 15 14 13 12 12 12 12 11 11 11 9 6 5 5 4 4 4 3 3 3 3 3 2 2
13 12 12 12 12 12 13 13 13 14 13 14 14 14 14 14 16 17 17 16 16 14 13 12 12 12 12 11 9 7 5 5 5 4 4 4 4 4 3 3 3 2 2
14 12 12 12 12 12 12 12 13 13 13 13 14 13 13 12 14 14 15 16 16 15 14 13 13 13 11 12 11 7 6 5 5 4 4 4 4 4 4 4 3 2 2
12 12 12 12 12 12 12 13 12 12 13 13 13 13 13 12 13 13 13 15 15 16 15 14 13 13 13 12 10 6 8 5 5 5 5 5 5 4 5 5 3 3 3
12 13 12 12 12 12 12 12 12 13 12 13 13 13 13 12 13 13 13 13 14 15 14 14 14 13 13 12 10 10 10 7 5 5 5 5 5 5 5 5 3 4 4
13 12 13 12 12 12 12 12 12 13 13 13 13 13 13 12 13 13 13 13 13 14 15 12 13 14 13 11 10 9 10 6 5 5 5 5 5 5 5 5 4 4 4
13 13 12 12 12 12 12 12 12 12 13 13 13 13 13 13 13 13 13 13 13 13 14 11 11 13 14 13 11 11 10 11 10 6 5 5 5 5 6 5 5 5 5
13 12 12 12 12 12 12 12 12 12 13 13 12 13 13 12 13 13 13 13 13 13 13 14 12 14 14 14 13 11 11 10 11 8 6 6 5 5 6 6 5 5 5
13 12 12 12 12 12 12 12 12 12 12 12 12 12 12 12 12 12 13 13 13 13 14 14 13 12 13 14 15 13 13 12 11 8 6 6 5 6 7 7 6 6 6
12 12 12 11 11 11 11 11 11 12 12 12 11 11 11 12 12 12 12 12 12 13 13 14 14 13 13 14 14 14 15 14 13 11 8 8 7 7 7 7 6 6 7
12 12 12 11 11 11 10 11 11 12 12 12 11 11 11 10 9 9 11 12 12 13 13 14 14 14 13 15 15 15 14 15 14 13 13 13 13 13 13 10 8 7 7
13 12 12 11 11 10 8 7 9 11 11 11 11 11 11 8 8 7 6 7 10 13 13 14 13 14 13 13 14 15 15 16 16 15 14 14 13 14 13 13 9 7 6
13 13 13 12 12 11 8 7 6 8 11 11 11 10 10 10 9 9 8 6 6 6 8 11 13 13 13 12 14 16 16 16 15 15 14 13 14 15 13 12 8 7 7
13 13 13 12 12 11 8 7 6 7 8 9 9 9 10 10 9 9 10 10 10 9 8 7 9 11 11 12 13 13 14 15 15 14 13 13 15 16 14 14 9 7 7
13 13 13 12 13 11 8 7 7 8 8 8 7 7 8 9 7 6 9 10 10 10 8 7 7 6 7 7 11 14 15 15 15 14 13 13 16 16 15 15 13 8 8
13 13 13 13 11 11 9 7 6 8 10 9 8 7 6 6 5 5 7 8 9 10 10 10 10 8 7 7 6 11 12 13 14 15 14 14 16 16 17 16 15 14 13